Location: Fiano Romano
(42.1667°N, 12.5833°E)
Time: 13:53:52
(UTC+00:00)

Daily predictions for brighter satellites

Satellite Brightness Start Highest point End
(mag) Time Altitude Azimuth Time Altitude Azimuth Time Altitude Azimuth
STARLINK-1239 3.6 17:55:43 10° SW 17:59:47 87° NNW 18:03:50 10° NE
CSL-04 Debris 4.4 17:55:25 10° SSE 18:00:55 84° WSW 18:06:26 10° NNW
STARLINK-1126 4.4 17:58:09 10° NW 18:02:00 39° NNE 18:05:51 10° E
BREEZE-M DEB (TANK) 3.3 17:53:08 10° SW 18:02:26 54° SSE 18:05:35 10° ENE
Ariane Rocket 3.4 17:58:50 10° SE 18:03:37 43° ENE 18:08:25 10° N
STARLINK-1240 3.7 18:00:26 10° SW 18:04:29 81° NW 18:08:33 10° NE
SJ-6B 4.2 18:02:04 10° ESE 18:05:12 22° ENE 18:08:22 10° NNE
Cosmos 1733 3.3 18:02:04 10° S 18:05:43 49° E 18:09:22 10° NNE
STARLINK-1082 4.3 18:02:40 10° NW 18:06:34 42° NNE 18:10:26 10° E
Meteor 1-22 Rocket 4.1 18:02:47 10° S 18:07:57 56° E 18:13:07 10° NNE
ARGOS Delta rocket 4.3 18:03:51 10° SSE 18:08:43 49° ENE 18:13:51 10° N
STARLINK-1216 3.8 18:05:11 10° WSW 18:09:13 75° NW 18:13:17 10° NE
Cosmos 1553 Rocket 4.2 18:04:40 10° SSW 18:10:43 78° W 18:16:50 10° N
STARLINK-1100 4.2 18:07:31 10° NW 18:11:26 44° NNE 18:15:10 11° ESE
Cosmos 1674 2.7 18:07:55 10° N 18:11:42 83° W 18:15:24 10° S
Cosmos 1110 Rocket 4.0 18:06:37 10° NNW 18:11:52 68° ENE 18:17:02 10° SSE
STARLINK-1237 3.9 18:09:58 10° WSW 18:14:00 69° NW 18:18:03 10° NE
Cosmos 1939 Rocket 4.3 18:12:21 10° S 18:16:09 42° W 18:19:54 10° NNW
STARLINK-1083 4.1 18:12:15 10° NW 18:16:12 47° NNE 18:19:44 13° ESE
KORONAS-FOTON 4.0 18:14:53 10° NNW 18:18:42 75° W 18:22:28 10° S
STARLINK-1202 4.0 18:14:42 10° WSW 18:18:44 64° NW 18:22:46 10° NE
Cosmos 1943 Rocket 3.5 18:15:06 10° N 18:19:22 22° NE 18:23:02 12° E
STARLINK-1125 4.0 18:16:48 10° NW 18:20:47 51° NNE 18:24:08 14° ESE
SL-14 R/B 3.6 18:18:55 10° N 18:22:49 45° ENE 18:26:40 10° SSE
STARLINK-1109 3.9 18:21:32 10° NW 18:25:33 55° NNE 18:28:42 16° ESE
STARLINK-1246 4.2 18:21:48 10° WSW 18:25:49 57° NNW 18:29:52 10° NE
Cosmos 2315 Rocket 4.2 18:20:52 10° SSE 18:26:54 51° E 18:33:01 10° NNE
Cosmos 1766 4.0 18:23:30 10° SSW 18:27:25 59° W 18:31:23 10° N
STARLINK-1091 3.8 18:26:20 10° NW 18:30:23 59° NNE 18:33:19 18° ESE
Orbus 7S? 3.6 18:28:20 10° WNW 18:30:55 37° SW 18:33:14 10° SSE
Meteor 2-8 Rocket 4.4 18:25:50 10° S 18:31:59 86° E 18:38:10 10° N
USA 234 3.3 18:26:04 10° NE 18:32:30 58° SE 18:38:55 10° SSW
ADEOS Rocket 4.2 18:26:08 10° N 18:32:37 50° WNW 18:38:26 10° SW
STARLINK-1066 2.8 18:29:32 10° NW 18:32:42 88° SW 18:34:49 19° SE
STARLINK-1224 4.4 18:29:06 10° WSW 18:33:04 51° NNW 18:37:03 10° NE
STARLINK-1081 2.8 18:30:01 10° NW 18:33:09 87° SW 18:35:12 19° SE
STARLINK-1070 2.8 18:30:28 10° NW 18:33:36 86° SSW 18:35:38 20° SE
H-2A R/B 2.1 18:28:23 10° SSE 18:33:41 69° ENE 18:38:51 10° N
STARLINK-1069 2.8 18:30:53 10° NW 18:34:03 85° SW 18:36:06 20° SE
STARLINK-1085 2.8 18:31:20 10° NW 18:34:30 84° SW 18:36:32 20° SE
Aureole 3 4.5 18:31:26 10° SE 18:34:43 28° E 18:38:48 10° NNE
HJ-1C 4.3 18:31:39 10° S 18:34:54 51° W 18:38:12 10° NNW
STARLINK-1086 2.8 18:31:50 10° NW 18:34:57 83° SW 18:36:56 20° SE
Cosmos 1626 2.1 18:31:40 10° N 18:35:20 59° E 18:38:59 10° SSE
STARLINK-1095 2.8 18:32:17 10° NW 18:35:24 82° SW 18:37:22 20° SE
STARLINK-1077 2.8 18:32:43 10° NW 18:35:51 82° SW 18:37:48 21° SE
SL-16 R/B 2.1 18:30:37 10° SSW 18:36:15 78° ESE 18:41:56 10° NNE
STARLINK-1075 2.8 18:33:11 10° NW 18:36:17 81° SW 18:38:14 21° SE
STARLINK-1093 2.9 18:33:35 10° NW 18:36:44 80° SW 18:38:42 21° SE
STARLINK-1074 2.9 18:34:02 10° NW 18:37:12 79° SW 18:39:08 21° SE
STARLINK-1087 2.9 18:34:31 10° NW 18:37:38 78° SW 18:39:31 21° SE
STARLINK-1088 2.9 18:34:58 10° NW 18:38:06 77° SW 18:39:58 22° SE
SL-08 RB Rocket 4.1 18:34:23 11° SE 18:38:23 43° ENE 18:42:42 10° N
STARLINK-1115 2.9 18:35:24 10° NW 18:38:33 77° SW 18:40:27 22° SE
STARLINK-1076 2.9 18:35:51 10° NW 18:39:00 76° SW 18:40:53 22° SE
STARLINK-1092 2.9 18:36:17 10° NW 18:39:27 75° SW 18:41:19 22° SE
STARLINK-1080 2.9 18:36:47 10° NW 18:39:54 74° SW 18:41:42 23° SE
Resurs 01 Rocket 3.1 18:38:55 18° E 18:40:16 20° ENE 18:43:29 10° NNE
STARLINK-1090 2.9 18:37:14 10° NW 18:40:21 73° SW 18:42:08 23° SE
STARLINK-1072 3.6 18:36:38 10° NW 18:40:40 71° NE 18:43:08 22° ESE
STARLINK-1089 2.9 18:37:40 10° WNW 18:40:47 72° SW 18:42:33 23° SE
STARLINK-1107 3.0 18:38:09 10° WNW 18:41:15 72° SW 18:43:00 23° SE
Meteor 2-15 4.4 18:37:45 10° S 18:43:41 61° E 18:49:39 10° NNE
FREGAT/IRIS 2.2 18:42:06 12° SSE 18:44:30 87° ENE 18:47:14 10° N
STARLINK-1096 3.5 18:40:59 10° NW 18:45:01 76° NE 18:47:19 24° ESE
Abrixas rocket 2.0 18:45:11 10° SW 18:48:05 56° SSE 18:49:07 33° E
Cosmos 1953 3.1 18:47:34 22° SE 18:49:07 30° E 18:52:39 10° NNE
Cosmos 1302 Rocket 4.0 18:44:00 10° NNW 18:49:16 69° ENE 18:53:40 15° SSE
STARLINK-1079 3.5 18:46:02 10° NW 18:50:04 83° NE 18:52:11 27° ESE
Cosmos 304 Rocket 4.4 18:47:11 10° NNW 18:51:52 55° WSW 18:56:30 10° S
Cosmos 1709 Rocket 3.9 18:46:08 10° N 18:52:22 86° E 18:58:29 10° S
MONITOR-E 3.9 18:51:13 18° S 18:53:01 73° WSW 18:55:40 10° NNW
STARLINK-1116 3.5 18:50:26 10° NW 18:54:30 89° NNE 18:56:26 30° SE
Cosmos 1603 4.3 18:53:20 10° SSE 18:58:15 32° ESE 19:03:11 10° NE
SL-24 R/B 4.1 18:54:16 10° NNE 18:58:40 53° E 19:02:32 10° S
Cosmos 2251 Rocket 3.8 18:55:42 10° S 19:00:42 43° ESE 19:05:46 10° NNE
Cosmos 1455 Rocket 4.5 18:56:42 10° SSW 19:00:45 40° WNW 19:04:53 10° N
ISS -1.9 18:58:53 10° NW 19:01:36 22° NNE 19:02:41 19° NE
Cosmos 2297 3.8 18:58:03 10° NNW 19:03:44 76° WSW 19:08:43 14° SSE
STARLINK-1094 3.5 18:59:42 10° NW 19:03:45 78° SW 19:05:21 35° SE
Cosmos 2074 Rocket 4.4 18:59:17 10° N 19:05:15 43° ENE 19:08:17 26° SE
Cosmos 2084 Rocket 4.4 19:01:38 10° NNW 19:05:45 35° NE 19:06:58 30° ENE
STARLINK-1117 3.6 19:04:33 10° WNW 19:08:36 71° SW 19:10:01 38° SSE
CZ-2C R/B 2.7 19:05:22 10° NNE 19:10:23 47° E 19:14:07 17° SSE
Cosmos 1626 Rocket 3.6 19:06:42 10° N 19:11:07 77° W 19:14:44 15° S
STARLINK-1078 3.7 19:09:00 10° WNW 19:13:02 65° SW 19:14:17 40° SSE
BREEZE-M DEB (TANK) 3.8 19:06:25 10° WNW 19:14:00 34° SW 19:15:44 21° S
ARGOS 3.6 19:08:45 10° S 19:14:06 64° W 19:19:28 10° NNW
STARLINK-1121 4.5 19:11:48 10° NW 19:15:42 38° NNE 19:16:39 33° ENE
Cosmos 292 Rocket 4.0 19:12:51 10° N 19:17:31 49° ENE 19:18:32 42° ESE
STARLINK-1108 3.9 19:13:53 10° WNW 19:17:53 59° SW 19:18:58 42° SSE
Cosmos 1602 Rocket 3.6 19:14:39 10° N 19:19:08 82° W 19:21:44 24° S
IRIDIUM 104 4.2 19:15:19 10° N 19:20:33 76° E 19:23:42 24° S
STARLINK-1106 4.3 19:16:45 10° NW 19:20:41 40° NNE 19:21:25 36° NE
USA 186 3.8 19:18:33 10° SSW 19:21:35 29° W 19:24:37 10° NW
STARLINK-1071 4.0 19:18:33 10° WNW 19:22:32 54° SW 19:23:26 43° S
MetOp-A 4.1 19:21:25 24° SSE 19:24:45 90° ENE 19:30:09 10° NNW
MOS 1 Rocket 3.5 19:19:31 10° NNE 19:24:47 68° E 19:29:46 12° S
STARLINK-1112 4.2 19:21:44 10° NW 19:25:43 43° NNE 19:26:14 40° NE
CZ-2C R/B 4.1 19:21:47 10° S 19:26:37 43° W 19:31:16 10° NNW
STARLINK-1110 4.1 19:23:02 10° WNW 19:26:58 49° SW 19:27:43 43° S
STARLINK-1124 4.2 19:24:26 10° WNW 19:28:26 48° SW 19:29:13 42° S
IRIDIUM 114 4.2 19:24:27 10° N 19:29:43 89° W 19:32:51 25° S
Cosmos 1470 4.3 19:26:48 10° SW 19:30:23 36° WNW 19:34:00 10° N
STARLINK-1128 4.1 19:26:42 10° NW 19:30:42 46° NNE 19:31:01 45° NE
SPOT 3 Rocket 3.8 19:29:48 22° S 19:33:15 69° WSW 19:38:28 10° NNW
STARLINK-1113 4.0 19:31:40 10° NW 19:35:42 49° NNE 19:35:47 49° NE
STARLINK-1122 4.4 19:32:32 10° WNW 19:36:23 41° SW 19:36:48 39° SSW
Cosmos 1825 Rocket 3.6 19:33:50 10° N 19:37:53 58° ENE 19:37:53 58° ENE
IRIDIUM 103 4.5 19:33:39 10° N 19:38:53 74° W 19:42:00 24° S
STARLINK-1119 4.0 19:36:37 10° NW 19:40:34 53° NNE 19:40:34 53° NNE
Cosmos 1726 2.7 19:42:57 50° N 19:42:57 50° N 19:45:47 10° N
Cosmos 2369 Rocket 2.1 19:36:29 10° NNW 19:42:12 70° ENE 19:43:14 57° ESE
STARLINK-1114 4.0 19:41:38 10° NW 19:45:24 55° N 19:45:24 55° N
Aureole 2 Rocket 3.6 19:43:35 10° NNW 19:45:57 40° NNW 19:45:57 40° NNW
NOSS 3-3 (A) 3.7 19:42:00 10° SSW 19:47:46 83° SE 19:54:17 10° NE
NOSS 3-3 (C) 3.7 19:42:06 10° SSW 19:47:52 83° SE 19:54:23 10° NE
Cosmos 1758 Rocket 3.4 19:43:37 10° N 19:47:54 85° NW 19:47:54 85° NW
Cosmos 2263 4.2 19:42:40 10° NNW 19:48:12 57° ENE 19:48:35 56° E
STARLINK-1130 (DARKSAT) 4.1 19:46:35 10° NW 19:50:10 55° N 19:50:10 55° N
Terra 4.0 19:53:53 14° NE 19:53:53 14° NE 19:55:08 10° NNE
Meteor 2-17 Rocket 4.4 19:47:11 10° N 19:53:15 60° ENE 19:53:46 58° E
Cosmos 1953 Rocket 4.3 19:50:06 10° N 19:53:22 44° NNE 19:53:22 44° NNE
Spot 2 Rocket 3.6 19:55:41 59° NE 19:55:41 59° NE 20:00:23 10° N
STARLINK-1084 4.2 19:51:32 10° NW 19:54:56 54° NNW 19:54:56 54° NNW
Cosmos 2184 Rocket 4.0 19:50:54 10° N 19:57:14 79° W 19:59:38 40° S
Cosmos 1606 Rocket 4.0 19:59:07 56° N 19:59:07 56° N 20:02:39 10° N
SPOT 1/Viking Rocket 4.3 20:00:50 39° NE 20:00:50 39° NE 20:04:47 10° N
STARLINK-1098 4.4 19:56:31 10° NW 19:59:43 50° NNW 19:59:43 50° NNW
Cosmos 1943 3.0 20:01:04 48° SSW 20:02:46 86° ESE 20:08:28 10° NNE
Cosmos 1943 Rocket 2.5 19:58:04 10° NNW 20:03:31 60° WSW 20:04:35 50° SSW
SL-8 R/B 4.2 20:03:18 10° WNW 20:07:34 52° N 20:07:34 52° N
ATLAS 2AS CENTAUR R/B 3.3 20:06:12 10° NNW 20:13:29 46° NE 20:14:22 44° ENE
USA 245 4.2 20:15:17 65° N 20:15:17 65° N 20:20:14 10° N
USA 234 4.1 20:09:11 10° NE 20:15:25 48° NNW 20:21:37 10° WSW
Resurs 01 Rocket 2.7 20:16:28 39° W 20:16:29 39° W 20:20:38 10° NNW
Cosmos 2154 Rocket 3.9 20:11:57 10° N 20:18:21 85° W 20:18:59 73° SSW
Cosmos 2228 4.4 20:22:39 37° NNW 20:22:39 37° NNW 20:25:35 10° N
Nadezhda 1 Rocket 4.5 20:29:47 38° SW 20:32:08 59° W 20:38:27 10° N
ISS -0.3 20:35:23 10° NW 20:35:39 12° NW 20:35:39 12° NW
ERS-1 Rocket 4.3 20:48:37 36° NNW 20:48:37 36° NNW 20:51:32 10° NNW
COSMOS 2455 4.1 21:11:30 10° NNW 21:15:09 36° N 21:15:09 36° N
Cosmos 2369 Rocket 4.5 21:22:07 10° WNW 21:25:03 16° W 21:25:03 16° W
Terra 4.3 21:32:45 19° NNW 21:32:45 19° NNW 21:34:07 10° NNW
NOSS 3-4 (A) 4.4 21:24:53 10° NW 21:30:09 54° NW 21:30:09 54° NW
NOSS 3-4 (C) 4.4 21:24:58 10° NW 21:30:15 54° NW 21:30:15 54° NW
ATLAS 2AS CENTAUR R/B 4.1 21:57:30 10° NW 22:01:48 32° WNW 22:01:48 32° WNW
CZ-4C R/B 4.3 22:33:39 10° NNW 22:38:44 31° NNE 22:38:44 31° NNE
SL-16 R/B 4.3 23:52:44 26° NNE 23:52:44 26° NNE 23:56:03 10° N
